STARLINK-2751, 48685

Orbit data source: Space-Track

STARLINK-2751, 48685 is a payload satellite owned by SpaceX/Seattle (US) in LEO that was launched on Wed, 26 May 2021 UTC via an FALCON 9 launch vehicle from the Air Force Eastern Test Range (AFETR). Payload-class satellites include a variety of spacecraft equipped with specific instruments for various scientific and technological missions. These include communications satellites like Starlink; space stations such as the ISS; scientific satellites like the Hubble; Earth observation satellites from companies like Planet Labs, Umbra, and HawkEye 360; GPS; miniature CubeSats for education and research; and military/defense satellites.

Loading next visibility...
Identifier
48685, 2021-044AZ
Orbit
LEO
Country
Flag of USUS
Related business
Manufacturer
SpaceX/Seattle
Mission
Operational Commercial Communications
Bus & Motor
STARLINK, Unknown motor
Mass
260 kg wet, ~248 kg dry
Launch date (UTC)
2021-05-26 (5 years ago)
Launch vehicle
FALCON 9
Launch site
Air Force Eastern Test Range (AFETR)
Object type
Payload
Rocket body
Debris
Shape & HBR
Box + 1 Pan, 10.1 m
Radar Cross Section
13.562 m², Large (>1 m²)

Expand to show TLE details & history
Last TLE update: 3 days ago

TLE from 3 days ago
0 STARLINK-2751
1 48685U 21044AZ  26170.70978112  .00001323  00000-0  54371-4 0  9996
2 48685  53.1599 310.2955 0001023 105.9738 254.1376 15.31711628280147
Epoch: 2026-06-19T17:02Z
TLE epoch observation values (Epoch: 2026-06-19T17:02:05.088Z)
Latitude
-0.00005°
Longitude
146.8394°
Altitude
471.797 km
Speed
7.631 km/s
True Right ascension
20h 41m 10s
True Declination
0° 00' 00"
Sunlit
Object was in full shadow at epoch
Visualization orbit readout
Latitude
Unknown
Longitude
Unknown
Altitude
Unknown
Speed
Unknown
Apparent Right ascension
Unknown
Apparent Declination
Unknown
Sunlit
N/A
Visualization observer readout
Local Sidereal Time
21:37:23
Azimuth
Unknown
Elevation
Unknown
Doppler factor
Unknown
Orbital elements
Apogee altitude
471.663 km
Perigee altitude
470.261 km
Semi-major axis
6,849.099 km
Eccentricity
0.0001
Inclination
53.1599°
RAAN
310.2955°
Arg. of periapsis
105.9738°
True anomaly
254.12632°
Mean anomaly
254.1376°
Eccentric anomaly
254.13196°
Mean motion
3.82907 °/min
Orbital period
94.02 mins
BSTAR
0.000054371
Loading maneuver chart data...
Computing Atmospheric mass density...
Loading historical data...
Loading historical data...
Loading historical data...
Loading historical data...
Loading historical data...
Loading historical data...
Loading historical data...

Documentation

Showing up to 5 results
|